Starlink 33584

operational
NORAD ID: 62761 Int'l Des: 2025-015 Owner: SPXS Country: US Constellation: starlink
LEOCIRCULAR

Starlink 33584について

説明を読み込み中...

リアルタイム位置

3D地球を読み込み中...

次回通過

高度履歴

Altitude vs Time

uPlot chart will show altitude changes over time

軌道要素

1 62761U 25015D 25308.94764086 .00024170 00000-0 82598-3 0 9996
2 62761 53.1559 181.7980 0001025 89.1940 270.9178 15.30181526 45381
Epoch: Nov 4, 2025 • Age: 9 hours

現在のステータス

高度 486.5 km
速度 7.62 km/s
衛星直下点 -34.07°S, 14.39°W
打ち上げ日 Jan 21, 2025
運用期間 0.7 years
タイプ internet

技術仕様

分類 Payload
質量 575.00 kg
乾燥質量 530.00 kg
総質量 575.00 kg
長さ 0.30 m
直径 4.10 m
スパン 29.00 m
形状 Box + pan
製造者 SPXS
バスタイプ Starlink V2MO
フェーズステータス In Orbit
所有者/国 SPXS/US

大規模コンステレーション

Loading constellations...